Regional Weather Roundup
Issued by NWS

Home | Current Version | Previous Version | Text Only | Print | Product List | Glossary Off
Versions: 1 2 3 4 5 6 7 8 9 10 11 12 13 14 15 16 17 18 19 20 21 22 23 24 25 26 27 28 29 30 31 32 33 34 35 36 37 38 39 40 41 42 43 44 45 46 47 48 49 50

385
ASUS43 KDMX 201901
RWRIA

WEATHER ROUNDUP FOR IOWA
NATIONAL WEATHER SERVICE DES MOINES IA
100 PM CST SAT JAN 20 2018

NOTE: "FAIR" INDICATES FEW OR NO CLOUDS BELOW 12,000 FEET WITH NO
SIGNIFICANT WEATHER AND/OR OBSTRUCTIONS TO VISIBILITY.

* - THESE STATIONS ARE NOT NWS STATIONS...THUS NOT UNDER NWS
QUALITY CONTROL.  THEY ALSO DO NOT REPORT WEATHER SUCH
AS PRECIPITATION OR FOG.

IAZ001>003-012>014-020>022-031>034-043>046-202000-
   NORTHWEST IOWA

CITY           SKY/WX    TMP DP  RH WIND       PRES   REMARKS
CARROLL *      SUNNY     46  34  61 CALM      29.84F
CHEROKEE *     SUNNY     51  32  47 NE5       29.85F
DENISON *      SUNNY     48  36  61 SE5       29.84F
LE MARS *      MOSUNNY   52  34  50 N7        29.86F
ORANGE CITY *  CLOUDY    46  36  66 N3        29.86F
SHELDON *      CLOUDY    45  36  70 N5        29.86S
SIOUX CITY     SUNNY     51  34  52 CALM      29.85F
SPENCER        CLOUDY    47  32  56 NE3       29.86F
STORM LAKE *   SUNNY     48  32  53 NE7       29.84F
$$

IAZ055>058-069>071-079>083-090>094-202000-
   SOUTHWEST IOWA

CITY           SKY/WX    TMP DP  RH WIND       PRES   REMARKS
ATLANTIC *     SUNNY     45  34  65 VRB3      29.85F
AUDUBON *      SUNNY     46  34  61 CALM      29.85F
CLARINDA *     CLOUDY    46  43  87 CALM        N/A
COUNCIL BLFS * SUNNY     43  36  75 SE6       29.83F
CRESTON *      CLOUDY    45  39  81 W9        29.87F
HARLAN  *      SUNNY     43  32  65 CALM      29.87F
LAMONI         CLOUDY    48  41  76 SW6       29.87F
RED OAK *      CLOUDY    45  41  87 VRB5      29.85F
SHENANDOAH *   CLOUDY    43  39  87 N3        29.85F
$$

IAZ047>049-059>061-072>074-084-202000-
   CENTRAL IOWA

CITY           SKY/WX    TMP DP  RH WIND       PRES   REMARKS
AMES           SUNNY     45  35  68 CALM      29.86F
ANKENY *       SUNNY     46  30  53 S5        29.87F
BOONE *        SUNNY     45  36  70 CALM      29.84F
CHARITON *     CLOUDY    45  39  81 W10       29.87F
DES MOINES     MOSUNNY   47  34  60 S9        29.86F
GRINNELL*      SUNNY     44  33  66 SW10      29.88F
KNOXVILLE *    CLOUDY    43  39  87 SW10      29.87F
MARSHALLTOWN   SUNNY     46  33  60 S5        29.86F
NEWTON *       SUNNY     46  34  61 SW10      29.87F
PELLA *        CLOUDY    42  38  86 SW8       29.90F
PERRY *          N/A     45  34  64 CALM      29.85F
$$

IAZ004>006-015-016-023>025-035-036-202000-
   NORTH CENTRAL IOWA

CITY           SKY/WX    TMP DP  RH WIND       PRES   REMARKS
ALGONA *       CLOUDY    45 N/A N/A NE6       29.86F
CLARION *      SUNNY     48  36  61 NE3       29.86F
ESTHERVILLE    CLOUDY    41  34  76 CALM      29.86F
FORT DODGE *   SUNNY     45  35  68 CALM      29.86F
MASON CITY     MOSUNNY   44  34  67 CALM      29.88F
FOREST CITY *    N/A     45  34  65 CALM      29.87F
WEBSTER CITY * SUNNY     46  36  66 CALM      29.84F
IOWA FALLS *     N/A     47  37  67 CALM      29.87F
$$

IAZ007>011-017>019-026>030-037>042-050>054-066-202000-
   NORTHEAST IOWA

CITY           SKY/WX    TMP DP  RH WIND       PRES   REMARKS
CEDAR RAPIDS     N/A     46  32  58 S8        29.86F
CHARLES CITY *   N/A     45  39  81 N3        29.87F
CLINTON *        N/A     46  34  62 SW10      29.90F
DECORAH *        N/A     45  34  65 CALM      29.87S
DUBUQUE          N/A     43  31  62 S6        29.86F
MONTICELLO *     N/A     46  32  57 S9        29.86F
OELWEIN *        N/A     46  39  76 S5        29.87S
WATERLOO         N/A     48  32  53 VRB3      29.87S
$$

IAZ064-065-067-068-078-202000-
   EAST CENTRAL IOWA

CITY           SKY/WX    TMP DP  RH WIND       PRES   REMARKS
DAVENPORT        N/A     47  34  60 SW13      29.91F
IOWA CITY        N/A     46  34  62 SW6       29.91F
MT. PLEASANT * CLOUDY    43  37  81 W9        29.92F
MUSCATINE *    CLOUDY    43  37  81 W8G16     29.92F
QUAD CITIES      N/A     47  37  68 W10       29.90F
$$

IAZ062-063-075>077-085>089-095>099-202000-
   SOUTHEAST IOWA

CITY           SKY/WX    TMP DP  RH WIND       PRES   REMARKS
BURLINGTON     CLOUDY    46  39  76 W8        29.91F
FAIRFIELD *    CLOUDY    45  39  81 SW6G12    29.89F
FORT MADISON * CLOUDY    46  41  81 SW6       29.92F
KEOKUK *       CLOUDY    50  41  71 SW8       29.90F
OSKALOOSA *    CLOUDY    42  38  86 W7        29.89F
OTTUMWA        CLOUDY    45  38  76 SW10      29.88F
WASHINGTON *   CLOUDY    43  41  93 W9        29.92S
$$

ABBREVIATIONS USED IN REMARKS
   TC - TEMPERATURES IN CELSIUS
  WCI - WIND CHILL INDEX
   HX - HEAT INDEX
  VSB - VISIBILITY
$$





USA.gov is the U.S. government's official web portal to all federal, state and local government web resources and services.